TimePDT,TemperatureF,Dew PointF,Humidity,Sea Level PressureIn,VisibilityMPH,Wind Direction,Wind SpeedMPH,Gust SpeedMPH,PrecipitationIn,Events,Conditions,WindDirDegrees,DateUTC
12:15 AM,59.0,33.8,39,30.05,10.0,West,10.4,-,N/A,,Clear,270,2013-04-29 07:15:00
12:55 AM,59.0,32.0,36,30.05,10.0,WNW,9.2,-,N/A,,Clear,290,2013-04-29 07:55:00
1:15 AM,57.2,32.0,38,30.04,10.0,West,8.1,-,N/A,,Clear,280,2013-04-29 08:15:00
1:35 AM,57.2,33.8,41,30.04,10.0,West,9.2,-,N/A,,Clear,280,2013-04-29 08:35:00
1:55 AM,57.2,32.0,38,30.03,10.0,WNW,10.4,-,N/A,,Clear,290,2013-04-29 08:55:00
2:15 AM,53.6,33.8,47,30.02,10.0,NNW,5.8,-,N/A,,Clear,340,2013-04-29 09:15:00
2:35 AM,53.6,35.6,51,30.02,10.0,NW,4.6,-,N/A,,Clear,310,2013-04-29 09:35:00
2:55 AM,53.6,33.8,47,30.01,10.0,NW,4.6,-,N/A,,Clear,320,2013-04-29 09:55:00
3:15 AM,53.6,33.8,47,30.01,10.0,NNW,4.6,-,N/A,,Clear,330,2013-04-29 10:15:00
3:35 AM,55.4,33.8,44,30.01,10.0,WNW,5.8,-,N/A,,Clear,300,2013-04-29 10:35:00
3:55 AM,55.4,33.8,44,30.01,10.0,WNW,6.9,-,N/A,,Clear,290,2013-04-29 10:55:00
4:15 AM,53.6,32.0,44,30.00,10.0,West,5.8,-,N/A,,Clear,280,2013-04-29 11:15:00
4:35 AM,51.8,32.0,47,30.00,10.0,NW,4.6,-,N/A,,Clear,310,2013-04-29 11:35:00
4:55 AM,53.6,32.0,44,30.00,10.0,Calm,Calm,-,N/A,,Clear,0,2013-04-29 11:55:00
5:15 AM,53.6,32.0,44,30.00,10.0,WNW,3.5,-,N/A,,Clear,290,2013-04-29 12:15:00
5:35 AM,53.6,32.0,44,30.00,10.0,West,3.5,-,N/A,,Clear,280,2013-04-29 12:35:00
5:55 AM,50.0,32.0,50,30.00,10.0,WNW,3.5,-,N/A,,Clear,290,2013-04-29 12:55:00
6:15 AM,50.0,32.0,50,30.00,10.0,Calm,Calm,-,N/A,,Clear,0,2013-04-29 13:15:00
6:35 AM,53.6,32.0,44,30.01,10.0,Calm,Calm,-,N/A,,Clear,0,2013-04-29 13:35:00
6:55 AM,53.6,32.0,44,30.01,10.0,Calm,Calm,-,N/A,,Clear,0,2013-04-29 13:55:00
7:15 AM,57.2,32.0,38,30.01,10.0,Calm,Calm,-,N/A,,Clear,0,2013-04-29 14:15:00
7:35 AM,60.8,32.0,34,30.01,10.0,WNW,3.5,-,N/A,,Clear,290,2013-04-29 14:35:00
7:55 AM,64.4,32.0,30,30.02,10.0,NW,8.1,-,N/A,,Clear,320,2013-04-29 14:55:00
8:15 AM,66.2,32.0,28,30.02,10.0,WNW,11.5,-,N/A,,Clear,300,2013-04-29 15:15:00
8:35 AM,68.0,32.0,26,30.02,10.0,NW,11.5,-,N/A,,Clear,320,2013-04-29 15:35:00
8:55 AM,68.0,28.4,23,30.01,10.0,NW,10.4,-,N/A,,Clear,310,2013-04-29 15:55:00
9:15 AM,69.8,32.0,25,30.01,10.0,NW,13.8,-,N/A,,Clear,320,2013-04-29 16:15:00
9:35 AM,71.6,32.0,23,30.02,10.0,NW,11.5,-,N/A,,Clear,320,2013-04-29 16:35:00
9:55 AM,71.6,33.8,25,30.02,10.0,NNW,13.8,-,N/A,,Clear,330,2013-04-29 16:55:00
10:15 AM,71.6,33.8,25,30.01,10.0,NW,13.8,-,N/A,,Clear,320,2013-04-29 17:15:00
10:35 AM,73.4,35.6,25,30.01,10.0,NW,12.7,21.9,N/A,,Clear,320,2013-04-29 17:35:00
10:55 AM,73.4,35.6,25,30.01,10.0,NW,15.0,-,N/A,,Clear,320,2013-04-29 17:55:00
11:15 AM,75.2,37.4,25,30.01,10.0,NW,13.8,20.7,N/A,,Clear,320,2013-04-29 18:15:00
11:35 AM,75.2,37.4,25,30.01,10.0,WNW,13.8,-,N/A,,Clear,300,2013-04-29 18:35:00
11:55 AM,75.2,37.4,25,30.00,10.0,NNW,16.1,21.9,N/A,,Clear,330,2013-04-29 18:55:00
12:15 PM,75.2,39.2,27,30.00,10.0,NW,12.7,-,N/A,,Clear,310,2013-04-29 19:15:00
12:35 PM,77.0,39.2,26,29.99,10.0,NW,15.0,20.7,N/A,,Clear,320,2013-04-29 19:35:00
12:55 PM,77.0,39.2,26,29.99,10.0,NW,15.0,19.6,N/A,,Clear,310,2013-04-29 19:55:00
1:15 PM,77.0,41.0,28,29.98,10.0,NNW,15.0,19.6,N/A,,Clear,330,2013-04-29 20:15:00
1:35 PM,77.0,41.0,28,29.97,9.0,NW,16.1,21.9,N/A,,Clear,320,2013-04-29 20:35:00
1:55 PM,77.0,42.8,29,29.97,10.0,NW,13.8,19.6,N/A,,Clear,310,2013-04-29 20:55:00
2:15 PM,77.0,42.8,29,29.96,10.0,NW,15.0,21.9,N/A,,Clear,320,2013-04-29 21:15:00
2:35 PM,77.0,42.8,29,29.95,10.0,NW,16.1,21.9,N/A,,Clear,310,2013-04-29 21:35:00
2:55 PM,77.0,42.8,29,29.94,10.0,NW,17.3,21.9,N/A,,Clear,320,2013-04-29 21:55:00
3:15 PM,77.0,42.8,29,29.94,10.0,NW,16.1,21.9,N/A,,Clear,320,2013-04-29 22:15:00
3:35 PM,77.0,41.0,28,29.93,10.0,WNW,15.0,24.2,N/A,,Clear,300,2013-04-29 22:35:00
3:55 PM,77.0,41.0,28,29.92,10.0,NW,19.6,25.3,N/A,,Clear,320,2013-04-29 22:55:00
4:15 PM,77.0,41.0,28,29.92,10.0,NW,18.4,25.3,N/A,,Clear,320,2013-04-29 23:15:00
4:35 PM,75.2,41.0,29,29.91,10.0,NW,16.1,26.5,N/A,,Clear,320,2013-04-29 23:35:00
4:55 PM,75.2,41.0,29,29.91,10.0,NW,16.1,21.9,N/A,,Clear,320,2013-04-29 23:55:00
5:15 PM,75.2,41.0,29,29.90,10.0,NW,17.3,21.9,N/A,,Clear,310,2013-04-30 00:15:00
5:35 PM,75.2,41.0,29,29.90,10.0,NW,18.4,23.0,N/A,,Clear,320,2013-04-30 00:35:00
5:55 PM,73.4,41.0,31,29.90,10.0,NW,15.0,25.3,N/A,,Clear,310,2013-04-30 00:55:00
6:15 PM,73.4,41.0,31,29.90,10.0,WNW,17.3,21.9,N/A,,Clear,300,2013-04-30 01:15:00
6:35 PM,71.6,41.0,33,29.90,10.0,WNW,19.6,25.3,N/A,,Clear,300,2013-04-30 01:35:00
6:55 PM,71.6,39.2,31,29.90,10.0,WNW,15.0,21.9,N/A,,Clear,300,2013-04-30 01:55:00
7:15 PM,69.8,39.2,33,29.90,10.0,WNW,12.7,20.7,N/A,,Clear,290,2013-04-30 02:15:00
7:35 PM,68.0,39.2,35,29.90,10.0,West,16.1,-,N/A,,Clear,280,2013-04-30 02:35:00
7:55 PM,66.2,37.4,35,29.90,10.0,West,12.7,-,N/A,,Clear,280,2013-04-30 02:55:00
8:15 PM,66.2,37.4,35,29.90,10.0,West,13.8,-,N/A,,Clear,270,2013-04-30 03:15:00
8:35 PM,64.4,37.4,37,29.90,10.0,West,12.7,-,N/A,,Clear,280,2013-04-30 03:35:00
8:55 PM,64.4,35.6,34,29.91,10.0,West,15.0,-,N/A,,Clear,270,2013-04-30 03:55:00
9:15 PM,64.4,35.6,34,29.91,10.0,West,11.5,-,N/A,,Clear,280,2013-04-30 04:15:00
9:35 PM,64.4,35.6,34,29.91,10.0,WNW,11.5,17.3,N/A,,Clear,300,2013-04-30 04:35:00
9:55 PM,64.4,37.4,37,29.92,10.0,WNW,12.7,-,N/A,,Clear,300,2013-04-30 04:55:00
10:15 PM,64.4,37.4,37,29.91,10.0,WNW,12.7,-,N/A,,Clear,300,2013-04-30 05:15:00
10:35 PM,64.4,39.2,40,29.91,10.0,WNW,15.0,-,N/A,,Clear,300,2013-04-30 05:35:00
10:55 PM,62.6,39.2,42,29.91,10.0,WNW,12.7,-,N/A,,Clear,300,2013-04-30 05:55:00
11:15 PM,64.4,41.0,42,29.91,10.0,WNW,12.7,-,N/A,,Clear,290,2013-04-30 06:15:00
11:35 PM,62.6,41.0,45,29.91,10.0,WNW,13.8,-,N/A,,Clear,290,2013-04-30 06:35:00
11:55 PM,62.6,41.0,45,29.91,10.0,WNW,11.5,-,N/A,,Clear,300,2013-04-30 06:55:00